Current Version              Previous Version:    01  02  03  04  05  06  07  08  09  10  11  12  13  14  15  16  17  18  19  20  21  22  23  24  25  26  27  28  29  30  
   31  32  33  34  35  36  37  38  39  40  41  42  43  44  45  46  47  48  49  50  51  52  53  54  55  56  57  58  59  60  

[Printable]
154
ASUS44 KFWD 260710
RWRTX
NORTH TEXAS HOURLY WEATHER ROUNDUP
NATIONAL WEATHER SERVICE FORT WORTH TX
200 AM CDT SUN OCT 26 2014

NOTE: "FAIR" INDICATES FEW OR NO CLOUDS BELOW 12,000 FEET WITH NO
SIGNIFICANT WEATHER AND/OR OBSTRUCTIONS TO VISIBILITY.

TXZ118-119-260800-
DALLAS/FORT WORTH METROPLEX

CITY           SKY/WX    TMP DP  RH WIND       PRES   REMARKS
DFW AIRPORT    CLEAR     71  60  68 S10       30.02F
DALLAS LOVE    CLEAR     72  60  66 S6        30.02F
FTW MEACHAM    CLEAR     73  60  63 S10       30.02S
DAL-EXECUTIVE  CLEAR     72  59  63 S5        30.02F
FTW-ALLIANCE   CLEAR     71  59  65 S8        30.02F
FTW-NAS-JRB    CLEAR     72  58  61 S9        30.06F
FTW-SPINKS     CLEAR     71  59  66 S9        30.05S
ARLINGTON      CLEAR     70  59  68 S7        30.03F
GRAND PRAIRIE  CLEAR     70  61  72 S9        30.04F
ADDISON        CLEAR     74  63  67 S5        30.04F
MESQUITE       CLEAR     63  60  90 S3        30.03F
LANCASTER      CLEAR     67  58  72 SW5       30.04F
$$

TXZ091>094-102>105-117-120-121-131>134-260800-
NORTH CENTRAL TEXAS

CITY           SKY/WX    TMP DP  RH WIND       PRES   REMARKS
SHRMAN/DENISON CLEAR     69  63  79 S9        30.03S
GAINESVILLE    CLEAR     65  59  79 S3        30.04S
BOWIE          CLEAR     66  59  80 S5        30.02S
BRIDGEPORT     CLEAR     72  59  64 S10       30.03F
DECATUR        CLEAR     71  57  61 S12       30.03F
DENTON         CLEAR     67  59  75 CALM      30.02S
MCKINNEY       CLEAR     64  60  87 S6        30.03S
GREENVILLE     CLEAR     64  59  82 S5        30.03F
ROCKWALL       CLEAR     68  62  80 S8        30.02F
TERRELL        CLEAR     65  62  90 S3        30.04F
WAXAHACHIE     CLEAR     67  60  78 S3        30.05S
CLEBURNE       CLEAR     66  63  88 S6        30.06S
GRANBURY       CLEAR     70  59  68 SE6       30.05S
$$

TXZ083>090-098>101-113>116-127>130-139>142-154-155-260800-
WESTERN NORTH TEXAS

CITY           SKY/WX    TMP DP  RH WIND       PRES   REMARKS
WICHITA FALLS  CLEAR     69  57  65 S12       29.98F
WF-KICKAPOO    CLEAR     64  55  74 S6        30.00S
VERNON         CLEAR     63  50  63 SW6       29.99S
ABILENE        CLEAR     67  52  58 S7        30.06S
ABILENE-DYESS  CLEAR     62  50  66 SE8       30.04F
BRECKENRIDGE   CLEAR     73  54  52 S10       30.03S
GRAHAM         CLEAR     70  58  65 S3        30.01S
MINERAL WELLS  CLEAR     64  58  80 SE9       30.02F
STEPHENVILLE   CLEAR     64  57  77 CALM      30.08F
COMANCHE       CLEAR     69  57  65 S13       30.05F
BROWNWOOD      PTCLDY    63  55  77 CALM      30.06F
COLEMAN        CLEAR     64  56  75 SW5       30.07S
BRADY          CLEAR     64  52  63 S5        30.08S
$$

TXZ143>147-156>162-174-175-260800-
CENTRAL TEXAS

CITY           SKY/WX    TMP DP  RH WIND       PRES   REMARKS
WACO           CLEAR     67  60  78 S8        30.05F
WACO-MCGREGOR  CLEAR     68  55  64 S8        30.06F
HILLSBORO      CLEAR     69  58  68 S7        30.05S
CORSICANA      CLEAR     67  60  78 S8        30.05F
MEXIA          CLEAR     64  60  89 S5        30.05F
HEARNE         FOG       64  60  87 E3        30.08S VSB 1/2
CAMERON        CLEAR     67  60  76 S8        30.06S
TEMPLE         CLEAR     63  55  77 S8        30.05F
KILLEEN        CLEAR     65  58  77 S7        30.06F
KILLEEN-SKYLRK CLEAR     66  54  63 S6        30.03F
FORT HOOD      CLEAR     70  59  68 SE3       30.06F
GATESVILLE     CLEAR     68  57  68 S6        30.08S
HAMILTON       CLEAR     65  56  74 S9        30.07S
LAMPASAS       CLEAR     64  58  80 CALM      30.06S
$$

TXZ095>097-106>112-122>126-135>138-148>153-164>167-260800-
EAST TEXAS

CITY           SKY/WX    TMP DP  RH WIND       PRES   REMARKS
PARIS          CLEAR     64  55  72 S3        30.04S
SULPHUR SPRNGS CLEAR     69  62  77 S7        30.05F
MOUNT PLEASANT CLEAR     65  64  94 CALM      30.05S
MINEOLA        CLEAR     63  63 100 CALM      30.05S
TYLER          CLEAR     66  62  87 S8        30.05F
LONGVIEW       CLEAR     67  62  84 S7        30.04F
MARSHALL       CLEAR     64  62  93 CALM      30.06F
ATHENS         CLEAR     61  59  94 CALM      30.04F
PALESTINE      CLEAR     66  62  85 SE3       30.07F
JACKSONVILLE   CLEAR     67  63  85 S8        30.08F
HENDERSON      CLEAR     63  63  99 CALM      30.07S
NACOGDOCHES    PTCLDY    57  55  94 CALM      30.07F
LUFKIN         CLEAR     62  57  83 CALM      30.06F
$$

SUPPLEMENTAL OBSERVATIONS (CENTRAL)

CITY           SKY/WX    TMP DP  RH WIND       PRES   REMARKS
PAT MAYSE LAKE   N/A     70  63  78 S7          N/A
GREENVILLE       N/A     70  63  78 S6          N/A
CEDAR HILL       N/A     72  59  64 S5          N/A
PALESTINE        N/A     66  61  82 SW1         N/A
MCGREGOR         N/A     63  55  77 SW5         N/A
TEMPLE           N/A     64  57  77 S6          N/A
$$

SUPPLEMENTAL OBSERVATIONS (WEST)

CITY           SKY/WX    TMP DP  RH WIND       PRES   REMARKS
MILLERS CREEK    N/A     66  46  48 SW7         N/A
POSSUM KINGDOM   N/A     72  54  53 S10         N/A
GRANBURY         N/A     70  57  64 SE5         N/A
HAMBY            N/A     64  50  59 S8          N/A
IVIE RESERVOIR   N/A     64  50  59 S3          N/A
COLORADO BEND    N/A     64  54  68 S5          N/A
$$

SUPPLEMENTAL OBSERVATIONS (EAST)

CITY           SKY/WX    TMP DP  RH WIND       PRES   REMARKS
TEXARKANA        N/A     55  52  88 CALM        N/A
LINDEN           N/A     66  61  82 SW1         N/A
LUFKIN           N/A     59  57  94 MISG        N/A
$$

SUPPLEMENTAL OBSERVATIONS ARE A COLLECTION OF AUTOMATED INSTRUMENTS
THAT ARE MAINTAINED BY A VARIETY OF FEDERAL AND STATE AGENCIES.
CERTAIN ELEMENTS...SUCH AS HUMIDITY VALUES AND SUSTAINED WIND
SPEEDS...MAY BE APPROXIMATED.